Location: Staunton
(38.1490°N, 79.0720°W)
Time: 12:19:47
(UTC-05:00)

ISS - Pass Details

Date: 26 November 2021
Orbit: 417 x 422 km, 51.6° (Epoch: 05 December)

Event Time Altitude Azimuth Distance (km) Brightness Sun altitude
Rises 18:01:50 0° 294° (WNW) 2,373 0.9 -12.5°
Reaches altitude 10° 18:05:48 10° 340° (NNW) 1,510 -0.9 -13.2°
Maximum altitude 18:06:16 10° 348° (NNW) 1,498 -1.0 -13.3°
Drops below altitude 10° 18:06:44 10° 356° (N) 1,510 -1.1 -13.4°
Enters shadow 18:07:52 - 14° (NNE) 1,640 -1.0 -13.6°
